Volver al catálogo

SL-14 R/B

ActivoPO
NORAD 25369·ROCKET BODY·🇷🇺 Russia

Lanzado Jun 15, 1998 desde Plesetsk Cosmodrome

Loading…

Próximos Pases (próximas 24 horas)

TLE

ActualizadoSource: Space-Track

Época: Sep 14, 2026, 14:48 UTC

1 25369U 98036G   26257.61682942  .00000062  00000-0  47090-3 0  9992
2 25369  82.5964  12.4943 0342965 307.5925  60.5154 12.14698289252420

Sigue SL-14 R/B en tiempo real con AllMySat

Download on the App Store